Погода в Каневе

Украина / Черкасская область     49°45′03″N   31°28′10″E
темп.,
°C
ветер,
м/с
пор.,
м/с
влажн.,
%
обл.,
%
осадки,
мм/ч
давл.,
гПа
погр.,
м
26 октября, вт
вт2600:00+2ю23625 0.0 103334
03:00+1ю33655 0.0 103339
06:000ю34691 0.0 103261
09:00+2ю37645 0.0 1032211
12:00+8ю57435 0.0 1031706
15:00+10ююз673923 0.0 1028933
18:00+7ю365444 0.0 102897
21:00+5ю375947 0.0 1028129
27 октября, ср
ср2700:00+3ю310605 0.0 1027208
03:00+2ююз3117436 0.0 1027220
06:00+2ююз411875 0.0 1026228
09:00+4юз513834 0.0 1026354
12:00+10зюз686117 0.0 1024777
15:00+13з464250 0.0 1023927
18:00+9зсз355668 0.0 102469
21:00+7з337593 0.0 102438
28 октября, чт
чт2800:00+7з3485100 0.0 102568
03:00+6зюз3688100 0.0 1024117
06:00+6зюз41091100 0.0 1024191
09:00+8зюз5128234 0.0 1024303
12:00+14з710566 0.0 1023692
15:00+16зсз61053100 0.0 10211005
18:00+13сз51166100 0.0 1022609
21:00+12сз51077100 0.0 1023480
29 октября, пт
пт2900:00+12сз49848 0.0 1024387
03:00+9ссз389615 0.0 1025213
06:00+8ссз359733 0.0 1027124
09:00+8с249545 0.0 1028171
12:00+12св33675 0.0 1029623
15:00+13св22555 0.0 1029883
18:00+10в22695 0.0 102920
21:00+8вюв22795 0.0 103025
30 октября, сб
сб3000:00+7вюв23855 0.0 103135
03:00+6юв338942 0.0 103139
06:00+5ююв338922 0.0 103245
09:00+6ююв378451 0.0 1032185
12:00+13ююв57589 0.0 1032637
15:00+15ю57495 0.0 1031963
18:00+10ююв48675 0.0 1031136
21:00+8ююв411740 0.0 1031205